CZ-4 DEB, 26265

Orbit data source: Space-Track

CZ-4 DEB, 26265 is space debris in SSO originally from a launch on Thu, 14 Oct 1999 UTC launched from the Taiyaun Space Center, China (TSC). Debris objects in space refer to the collection of defunct objects orbiting the Earth. Examples of debris include non-operational satellites, rocket bodies, and fragments generated from explosions, collisions, or faulty payload assembly.

Loading next visibility...
Identifier
26265, 1999-057FB
Orbit
SSO
Country
Flag of CNCN / PRC
Related business
Manufacturer
Unknown
Mission
Spacecraft
Bus & Motor
Unknown
Mass
Unknown
Launch date (UTC)
1999-10-14 (26 years ago)
Launch vehicle
Unknown
Launch site
Taiyaun Space Center, China (TSC)
Object type
Payload
Rocket body
Debris
Shape & HBR
Unknown shape, 0.1 m
Radar Cross Section
Small (<0.1 m²)

Expand to show TLE details & history
Last TLE update: 9 hours ago

TLE from 9 hours ago
0 CZ-4 DEB
1 26265U 99057FB  26036.78850522  .00001645  00000-0  47594-3 0  9993
2 26265  98.6505 101.3962 0095369 229.5003 253.4369 14.43294948355857
Epoch: 2026-02-05T18:55Z
TLE epoch observation values (Epoch: 2026-02-05T18:55:26.851Z)
Latitude
57.17418°
Longitude
-124.83436°
Altitude
777.171 km
Speed
7.46 km/s
True Right ascension
19h 39m 51s
True Declination
57° 01' 04"
Sunlit
Object was in daylight at epoch
Visualization orbit readout
Latitude
Unknown
Longitude
Unknown
Altitude
Unknown
Speed
Unknown
Apparent Right ascension
Unknown
Apparent Declination
Unknown
Sunlit
N/A
Visualization observer readout
Local Sidereal Time
06:08:39
Azimuth
Unknown
Elevation
Unknown
Doppler factor
Unknown
Orbital elements
Apogee altitude
812.687 km
Perigee altitude
676.827 km
Semi-major axis
7,122.894 km
Eccentricity
0.00954
Inclination
98.6505°
RAAN
101.3962°
Arg. of periapsis
229.5003°
True anomaly
252.393°
Mean anomaly
253.4369°
Eccentric anomaly
252.91459°
Mean motion
3.61043 °/min
Orbital period
99.71 mins
BSTAR
0.00047594
Loading maneuver chart data...
Computing Atmospheric mass density...
Loading historical data...
Loading historical data...
Loading historical data...
Loading historical data...
Loading historical data...
Loading historical data...
Loading historical data...

Documentation

Showing up to 5 results
|